{"data":{"norad_id":39206,"epoch":"2026-05-24T21:43:09.465024Z","epoch_age_seconds":97347,"freshness":"FRESH","line1":"1 39206U 13036A   26144.90497066 -.00000016  00000+0  00000+0 0  9997","line2":"2 39206   4.9498  45.4947 0050225 178.6720 156.1395  1.00269215 46954","mean_motion":1.00269215,"eccentricity":0.0050225,"inclination_deg":4.9498,"raan_deg":45.4947,"arg_perigee_deg":178.672,"mean_anomaly_deg":156.1395,"bstar":0,"rev_number":4695,"period_min":1436.1337126256,"perigee_km":35575.539455989,"apogee_km":35999.091425757,"semimajor_km":42165.452440873,"source":"CELESTRAK","updated_at":"2026-05-25T13:38:13.943945Z"}}